Tracking 28790 objects as of 19-Apr-2024
HD Live streaming from Space Station
objects crossing your sky now

CHINASAT 20

Track CHINASAT 20 now!
CHINASAT 20 is classified as:


NORAD ID: 28082
Int'l Code: 2003-052A
Perigee: 36,107.7 km
Apogee: 36,137.8 km
Inclination: 8.7 °
Period: 1,452.9 minutes
Semi major axis: 42493 km
RCS: 12.5893 m2 (large)
Launch date: November 14, 2003
Source: People's Republic of China (PRC)
Launch site: Xichang Space Center, China (XSC)

Dedicated military communications satellite.
Your satellite tracking list
Your tracking list is empty




NASA's NSSDC Master Catalog

Two Line Element Set (TLE):
1 28082U 03052A   24109.86588007 -.00000109  00000-0  00000-0 0  9999
2 28082   8.7255  56.8419 0003540  71.3243 133.1940  0.99109432 74564
Source of the keplerian elements: AFSPC